Time,TemperatureF,DewpointF,PressureIn,WindDirection,WindDirectionDegrees,WindSpeedMPH,WindSpeedGustMPH,Humidity,HourlyPrecipIn,Conditions,Clouds,dailyrainin,SoftwareType,DateUTC
2013-01-30 00:04:00,56.0,55.0,30.00,SSE,155,4.0,8.0,95,0.03,,,0.03,,2013-01-30 05:04:00,
2013-01-30 00:12:00,56.0,55.0,30.00,SSE,155,4.0,8.0,95,0.03,,,0.03,,2013-01-30 05:12:00,
2013-01-30 00:22:00,56.0,55.0,30.01,SSE,160,4.0,11.0,95,0.04,,,0.05,,2013-01-30 05:22:00,
2013-01-30 00:32:00,56.0,55.0,30.00,SSE,166,7.0,13.0,95,0.06,,,0.07,,2013-01-30 05:32:00,
2013-01-30 00:43:00,56.0,55.0,30.00,SSE,166,7.0,13.0,95,0.06,,,0.07,,2013-01-30 05:43:00,
2013-01-30 00:52:00,56.0,55.0,29.99,SSE,160,6.0,13.0,95,0.06,,,0.09,,2013-01-30 05:52:00,
2013-01-30 01:02:00,56.0,55.0,29.98,SSE,160,7.0,16.0,95,0.05,,,0.09,,2013-01-30 06:02:00,
2013-01-30 01:12:00,56.0,55.0,29.98,SSE,160,7.0,16.0,95,0.05,,,0.09,,2013-01-30 06:12:00,
2013-01-30 01:22:00,56.0,55.0,29.98,SSE,159,7.0,14.0,95,0.04,,,0.09,,2013-01-30 06:22:00,
2013-01-30 01:32:00,56.0,55.0,29.96,SSE,151,7.0,17.0,95,0.02,,,0.09,,2013-01-30 06:32:00,
2013-01-30 01:42:00,56.0,55.0,29.96,SSE,151,7.0,17.0,95,0.02,,,0.09,,2013-01-30 06:42:00,
2013-01-30 01:52:00,56.0,55.0,29.97,SSE,158,5.0,16.0,95,0.00,,,0.09,,2013-01-30 06:52:00,
2013-01-30 02:02:00,56.0,55.0,29.97,SSE,158,5.0,13.0,95,0.00,,,0.09,,2013-01-30 07:02:00,
2013-01-30 02:12:00,56.0,55.0,29.97,SSE,158,5.0,13.0,95,0.00,,,0.09,,2013-01-30 07:12:00,
2013-01-30 02:22:00,56.0,55.0,29.96,ESE,105,5.0,17.0,95,0.00,,,0.09,,2013-01-30 07:22:00,
2013-01-30 02:32:00,56.0,54.0,29.96,SSE,157,5.0,12.0,94,0.00,,,0.09,,2013-01-30 07:32:00,
2013-01-30 02:42:00,56.0,54.0,29.96,SSE,157,5.0,12.0,94,0.00,,,0.09,,2013-01-30 07:42:00,
2013-01-30 02:52:00,56.0,54.0,29.96,SSE,158,7.0,15.0,93,0.00,,,0.09,,2013-01-30 07:52:00,
2013-01-30 03:02:00,56.0,54.0,29.96,SSE,162,3.0,14.0,94,0.00,,,0.09,,2013-01-30 08:02:00,
2013-01-30 03:11:00,56.0,54.0,29.96,SSE,162,3.0,14.0,94,0.00,,,0.09,,2013-01-30 08:11:00,
2013-01-30 03:22:00,56.0,54.0,29.94,SSE,159,7.0,15.0,94,0.00,,,0.09,,2013-01-30 08:22:00,
2013-01-30 03:32:00,56.0,54.0,29.93,SSE,158,4.0,12.0,93,0.00,,,0.09,,2013-01-30 08:32:00,
2013-01-30 03:42:00,56.0,54.0,29.93,SSE,158,4.0,12.0,93,0.00,,,0.09,,2013-01-30 08:42:00,
2013-01-30 03:52:00,56.0,54.0,29.93,SSE,158,6.0,14.0,93,0.00,,,0.09,,2013-01-30 08:52:00,
2013-01-30 04:02:00,56.0,54.0,29.92,SSE,156,7.0,20.0,92,0.00,,,0.09,,2013-01-30 09:02:00,
2013-01-30 04:12:00,56.0,54.0,29.92,SSE,156,7.0,20.0,92,0.00,,,0.09,,2013-01-30 09:12:00,
2013-01-30 04:22:00,55.0,53.0,29.92,SSE,160,7.0,14.0,92,0.00,,,0.09,,2013-01-30 09:22:00,
2013-01-30 04:32:00,55.0,53.0,29.91,SSE,154,5.0,12.0,92,0.00,,,0.09,,2013-01-30 09:32:00,
2013-01-30 04:42:00,55.0,53.0,29.91,SSE,154,5.0,12.0,92,0.00,,,0.09,,2013-01-30 09:42:00,
2013-01-30 04:51:00,55.0,53.0,29.91,SSE,160,4.0,13.0,93,0.00,,,0.09,,2013-01-30 09:51:00,
2013-01-30 05:02:00,55.0,53.0,29.90,SSE,160,3.0,10.0,94,0.02,,,0.11,,2013-01-30 10:02:00,
2013-01-30 05:12:00,55.0,53.0,29.90,SSE,160,3.0,10.0,94,0.02,,,0.11,,2013-01-30 10:12:00,
2013-01-30 05:21:00,55.0,54.0,29.89,SSE,159,4.0,13.0,95,0.02,,,0.11,,2013-01-30 10:21:00,
2013-01-30 05:32:00,55.0,54.0,29.89,SSE,160,4.0,16.0,95,0.02,,,0.11,,2013-01-30 10:32:00,
2013-01-30 05:42:00,55.0,54.0,29.89,SSE,160,4.0,16.0,95,0.02,,,0.11,,2013-01-30 10:42:00,
2013-01-30 05:52:00,56.0,55.0,29.88,SSE,158,7.0,17.0,95,0.02,,,0.11,,2013-01-30 10:52:00,
2013-01-30 06:02:00,56.0,55.0,29.88,SSE,159,3.0,19.0,95,0.00,,,0.11,,2013-01-30 11:02:00,
2013-01-30 06:11:00,56.0,55.0,29.88,SSE,159,3.0,19.0,95,0.00,,,0.11,,2013-01-30 11:11:00,
2013-01-30 06:22:00,56.0,55.0,29.87,SSE,159,3.0,9.0,95,0.02,,,0.13,,2013-01-30 11:22:00,
2013-01-30 06:33:00,56.0,55.0,29.86,SSE,160,5.0,17.0,96,0.02,,,0.13,,2013-01-30 11:33:00,
2013-01-30 06:42:00,56.0,55.0,29.86,SSE,160,5.0,17.0,96,0.02,,,0.13,,2013-01-30 11:42:00,
2013-01-30 06:52:00,56.0,55.0,29.86,SSE,164,4.0,14.0,96,0.02,,,0.13,,2013-01-30 11:52:00,
2013-01-30 07:02:00,56.0,55.0,29.85,SSE,156,5.0,19.0,95,0.02,,,0.13,,2013-01-30 12:02:00,
2013-01-30 07:12:00,56.0,55.0,29.85,SSE,156,5.0,19.0,95,0.02,,,0.13,,2013-01-30 12:12:00,
2013-01-30 07:22:00,56.0,55.0,29.85,SSE,156,9.0,16.0,95,0.00,,,0.13,,2013-01-30 12:22:00,
2013-01-30 07:33:00,56.0,55.0,29.84,SSE,150,9.0,19.0,95,0.00,,,0.13,,2013-01-30 12:33:00,
2013-01-30 07:43:00,56.0,55.0,29.84,SSE,150,9.0,19.0,95,0.00,,,0.13,,2013-01-30 12:43:00,
2013-01-30 08:03:00,56.0,55.0,29.84,SSE,155,7.0,22.0,96,0.00,,,0.13,,2013-01-30 13:03:00,
2013-01-30 08:12:00,56.0,55.0,29.84,SSE,155,7.0,22.0,96,0.00,,,0.13,,2013-01-30 13:12:00,
2013-01-30 08:23:00,56.0,55.0,29.83,SSE,158,6.0,15.0,96,0.00,,,0.13,,2013-01-30 13:23:00,
2013-01-30 08:33:00,56.0,55.0,29.82,SSE,162,5.0,33.0,96,0.00,,,0.13,,2013-01-30 13:33:00,
2013-01-30 08:43:00,56.0,55.0,29.82,SSE,162,5.0,33.0,96,0.00,,,0.13,,2013-01-30 13:43:00,
2013-01-30 08:52:00,56.0,55.0,29.82,NNE,13,7.0,24.0,96,0.00,,,0.13,,2013-01-30 13:52:00,
2013-01-30 09:03:00,56.0,55.0,29.80,NNE,13,5.0,18.0,96,0.00,,,0.13,,2013-01-30 14:03:00,
2013-01-30 09:12:00,56.0,55.0,29.80,NNE,13,5.0,18.0,96,0.00,,,0.13,,2013-01-30 14:12:00,
2013-01-30 09:23:00,56.0,55.0,29.82,NNE,13,8.0,18.0,96,0.00,,,0.13,,2013-01-30 14:23:00,
2013-01-30 09:33:00,56.0,55.0,29.82,NNE,13,6.0,19.0,96,0.00,,,0.13,,2013-01-30 14:33:00,
2013-01-30 09:42:00,56.0,55.0,29.82,NNE,13,6.0,19.0,96,0.00,,,0.13,,2013-01-30 14:42:00,
2013-01-30 09:52:00,56.0,55.0,29.81,NNE,13,4.0,19.0,96,0.00,,,0.13,,2013-01-30 14:52:00,
2013-01-30 10:03:00,56.0,55.0,29.81,NNE,13,6.0,19.0,96,0.00,,,0.13,,2013-01-30 15:03:00,
2013-01-30 10:12:00,56.0,55.0,29.81,NNE,13,6.0,19.0,96,0.00,,,0.13,,2013-01-30 15:12:00,
2013-01-30 10:23:00,57.0,56.0,29.80,NNE,13,8.0,16.0,96,0.00,,,0.13,,2013-01-30 15:23:00,
2013-01-30 10:33:00,57.0,56.0,29.79,NNE,13,9.0,19.0,96,0.00,,,0.13,,2013-01-30 15:33:00,
2013-01-30 10:43:00,57.0,56.0,29.79,NNE,13,9.0,19.0,96,0.00,,,0.13,,2013-01-30 15:43:00,
2013-01-30 10:53:00,57.0,56.0,29.78,NNE,13,8.0,13.0,96,0.00,,,0.13,,2013-01-30 15:53:00,
2013-01-30 11:03:00,57.0,56.0,29.78,NNE,13,8.0,13.0,96,0.00,,,0.13,,2013-01-30 16:03:00,
2013-01-30 11:12:00,57.0,56.0,29.78,NNE,13,8.0,13.0,96,0.00,,,0.13,,2013-01-30 16:12:00,
2013-01-30 11:23:00,57.0,56.0,29.78,NNE,13,7.0,21.0,96,0.00,,,0.13,,2013-01-30 16:23:00,
2013-01-30 11:32:00,57.0,56.0,29.77,NNE,13,5.0,19.0,96,0.00,,,0.13,,2013-01-30 16:32:00,
2013-01-30 11:42:00,57.0,56.0,29.77,NNE,13,5.0,19.0,96,0.00,,,0.13,,2013-01-30 16:42:00,
2013-01-30 11:52:00,57.0,56.0,29.77,NNE,13,5.0,19.0,96,0.00,,,0.13,,2013-01-30 16:52:00,
2013-01-30 12:02:00,57.0,56.0,29.76,NNE,13,8.0,18.0,96,0.00,,,0.13,,2013-01-30 17:02:00,
2013-01-30 12:13:00,57.0,56.0,29.76,NNE,13,8.0,18.0,96,0.00,,,0.13,,2013-01-30 17:13:00,
2013-01-30 12:23:00,57.0,56.0,29.75,NNE,13,7.0,15.0,96,0.00,,,0.13,,2013-01-30 17:23:00,
2013-01-30 12:33:00,57.0,56.0,29.73,NNE,13,8.0,14.0,96,0.00,,,0.13,,2013-01-30 17:33:00,
2013-01-30 12:43:00,57.0,56.0,29.73,NNE,13,8.0,14.0,96,0.00,,,0.13,,2013-01-30 17:43:00,
2013-01-30 12:53:00,57.0,56.0,29.73,NNE,13,8.0,19.0,96,0.00,,,0.13,,2013-01-30 17:53:00,
2013-01-30 13:03:00,57.0,56.0,29.72,NNE,13,8.0,17.0,96,0.00,,,0.13,,2013-01-30 18:03:00,
2013-01-30 13:13:00,57.0,56.0,29.72,NNE,13,8.0,17.0,96,0.00,,,0.13,,2013-01-30 18:13:00,
2013-01-30 13:23:00,57.0,56.0,29.71,NNE,13,5.0,13.0,97,0.00,,,0.13,,2013-01-30 18:23:00,
2013-01-30 13:33:00,57.0,56.0,29.70,NNE,13,4.0,16.0,97,0.00,,,0.13,,2013-01-30 18:33:00,
2013-01-30 13:43:00,57.0,56.0,29.70,NNE,13,4.0,16.0,97,0.00,,,0.13,,2013-01-30 18:43:00,
2013-01-30 13:52:00,57.0,56.0,29.68,NNE,13,6.0,13.0,97,0.00,,,0.13,,2013-01-30 18:52:00,
2013-01-30 14:03:00,57.0,56.0,29.67,NNE,13,8.0,18.0,97,0.00,,,0.13,,2013-01-30 19:03:00,
2013-01-30 14:13:00,57.0,56.0,29.67,NNE,13,8.0,18.0,97,0.00,,,0.13,,2013-01-30 19:13:00,
2013-01-30 14:22:00,57.0,56.0,29.66,NNE,13,7.0,15.0,97,0.00,,,0.13,,2013-01-30 19:22:00,
2013-01-30 14:33:00,58.0,57.0,29.65,NNE,13,7.0,21.0,97,0.00,,,0.13,,2013-01-30 19:33:00,
2013-01-30 14:43:00,58.0,57.0,29.65,NNE,13,7.0,21.0,97,0.00,,,0.13,,2013-01-30 19:43:00,
2013-01-30 14:52:00,58.0,57.0,29.65,NNE,13,7.0,21.0,97,0.00,,,0.13,,2013-01-30 19:52:00,
2013-01-30 15:03:00,58.0,57.0,29.65,NNE,13,7.0,21.0,97,0.00,,,0.13,,2013-01-30 20:03:00,
2013-01-30 16:04:00,58.0,57.0,29.59,NNE,13,8.0,25.0,96,0.11,,,0.28,,2013-01-30 21:04:00,
2013-01-30 16:12:00,58.0,57.0,29.59,NNE,13,8.0,25.0,96,0.11,,,0.28,,2013-01-30 21:12:00,
2013-01-30 16:23:00,58.0,57.0,29.59,NNE,13,8.0,25.0,96,0.11,,,0.28,,2013-01-30 21:23:00,
2013-01-30 16:32:00,58.0,57.0,29.59,NNE,13,8.0,25.0,96,0.11,,,0.28,,2013-01-30 21:32:00,
2013-01-30 16:42:00,58.0,57.0,29.59,NNE,13,8.0,25.0,96,0.11,,,0.28,,2013-01-30 21:42:00,
2013-01-30 17:03:00,58.0,57.0,29.56,NNE,13,10.0,19.0,96,0.48,,,0.72,,2013-01-30 22:03:00,
2013-01-30 17:12:00,58.0,57.0,29.56,NNE,13,10.0,19.0,96,0.48,,,0.72,,2013-01-30 22:12:00,
2013-01-30 17:22:00,58.0,57.0,29.55,NNE,13,3.0,7.0,95,0.73,,,1.08,,2013-01-30 22:22:00,
2013-01-30 17:32:00,55.0,54.0,29.54,NNE,13,4.0,15.0,95,1.12,,,1.60,,2013-01-30 22:32:00,
2013-01-30 17:42:00,55.0,54.0,29.54,NNE,13,4.0,15.0,95,1.12,,,1.60,,2013-01-30 22:42:00,
2013-01-30 17:52:00,55.0,54.0,29.55,NNE,13,7.0,13.0,96,1.32,,,1.95,,2013-01-30 22:52:00,
2013-01-30 18:02:00,55.0,54.0,29.53,NNE,13,4.0,10.0,96,1.31,,,2.02,,2013-01-30 23:02:00,
2013-01-30 18:12:00,55.0,54.0,29.53,NNE,13,4.0,10.0,96,1.31,,,2.02,,2013-01-30 23:12:00,
2013-01-30 18:22:00,55.0,54.0,29.53,NNE,13,4.0,10.0,96,1.31,,,2.02,,2013-01-30 23:22:00,
2013-01-30 18:33:00,55.0,54.0,29.53,NNE,13,4.0,10.0,96,1.31,,,2.02,,2013-01-30 23:33:00,